Oakland, MD

6:49 PM EST on December 11, 2017 (GMT -0500)
Oakland

Weather History for K2G4 - April, 2013

Change the Weather History Date:

Saturday, April 13, 2013

  Actual Average (KMGW) Record (KMGW)
Temperature  
Mean Temperature 42 °F -  
Max Temperature 53 °F 63 °F 85 °F (1971)
Min Temperature 32 °F 41 °F 18 °F (1950)
Degree Days  
Heating Degree Days 22    
Moisture  
Dew Point 28 °F    
Average Humidity 63    
Maximum Humidity 93    
Minimum Humidity 30    
Precipitation  
Precipitation 0.00 in - - ()
Sea Level Pressure  
Sea Level Pressure 29.88 in    
Wind  
Wind Speed 11 mph (West)    
Max Wind Speed 20 mph    
Max Gust Speed 31 mph    
Visibility 10 miles    
Events      
Averages and records for this station are not official NWS values.
T = Trace of Precipitation, MM = Missing Value Source: NWS Daily Summary

Daily Weather History Graph

Daily Weather History Graph

Search for Another Location

Airport or City:

Trip Planner

Search our weather history database for the weather conditions in past years. The results will help you decide how hot, cold, wet, or windy it might be!

Date:

Astronomy

Apr. 13, 2013 Rise Set
Actual Time 6:42 AM EDT 7:53 PM EDT
Civil Twilight 6:14 AM EDT 8:21 PM EDT
Nautical Twilight 5:41 AM EDT 8:54 PM EDT
Astronomical Twilight 5:07 AM EDT 9:29 PM EDT
Moon 8:33 AM EDT (4/13) 11:15 PM EDT (4/13)
Length of Visible Light 14h 06m
Length of Day
13h 10m
Waxing Crescent, 10% of the Moon is Illuminated
Apr 13
Waxing Crescent
Apr 18
First Quarter
Apr 25
Full
May 2
Last Quarter
May 9
New

Hourly Weather History & Observations

Time (EDT) Temp. Windchill Dew Point Humidity Pressure Visibility Wind Dir Wind Speed Gust Speed Precip Events Conditions
12:10 AM 39.2 °F 34.2 °F 32.0 °F 75% 29.82 in 10.0 mi West 6.9 mph 16.1 mph N/A   Overcast
12:30 AM 41.0 °F 35.8 °F 32.0 °F 70% 29.82 in 10.0 mi West 8.1 mph - N/A   Overcast
12:50 AM 41.0 °F 35.2 °F 32.0 °F 70% 29.82 in 10.0 mi West 9.2 mph - N/A   Overcast
1:10 AM 41.0 °F 33.1 °F 32.0 °F 70% 29.81 in 10.0 mi West 15.0 mph 21.9 mph N/A   Overcast
1:30 AM 41.0 °F 33.9 °F 32.0 °F 70% 29.81 in 10.0 mi West 12.7 mph 21.9 mph N/A   Overcast
1:50 AM 41.0 °F 34.7 °F 32.0 °F 70% 29.82 in 10.0 mi WNW 10.4 mph 21.9 mph N/A   Overcast
2:30 AM 37.4 °F 30.8 °F 32.0 °F 81% 29.82 in 10.0 mi West 9.2 mph 16.1 mph N/A   Overcast
2:50 AM 37.4 °F 30.3 °F 32.0 °F 81% 29.82 in 10.0 mi West 10.4 mph 17.3 mph N/A   Overcast
3:10 AM 37.4 °F 30.3 °F 33.8 °F 87% 29.82 in 10.0 mi West 10.4 mph 24.2 mph N/A   Overcast
3:30 AM 35.6 °F 28.0 °F 33.8 °F 93% 29.81 in 10.0 mi West 10.4 mph 19.6 mph N/A   Overcast
3:50 AM 35.6 °F 28.0 °F 33.8 °F 93% 29.81 in 10.0 mi West 10.4 mph 27.6 mph N/A   Overcast
4:10 AM 35.6 °F 27.5 °F 32.0 °F 87% 29.81 in 10.0 mi West 11.5 mph 19.6 mph N/A   Overcast
4:30 AM 35.6 °F 27.1 °F 32.0 °F 87% 29.81 in 10.0 mi West 12.7 mph 24.2 mph N/A   Mostly Cloudy
4:50 AM 35.6 °F 25.9 °F 30.2 °F 81% 29.82 in 10.0 mi West 16.1 mph 26.5 mph N/A   Scattered Clouds
5:10 AM 33.8 °F 25.3 °F 30.2 °F 87% 29.83 in 10.0 mi West 11.5 mph 23.0 mph N/A   Clear
5:30 AM 35.6 °F 28.0 °F 30.2 °F 81% 29.83 in 10.0 mi West 10.4 mph 19.6 mph N/A   Mostly Cloudy
5:50 AM 33.8 °F 25.8 °F 30.2 °F 87% 29.84 in 10.0 mi West 10.4 mph 16.1 mph N/A   Overcast
6:10 AM 33.8 °F 25.8 °F 28.4 °F 81% 29.84 in 10.0 mi West 10.4 mph 17.3 mph N/A   Overcast
6:30 AM 32.0 °F 24.2 °F 28.4 °F 87% 29.85 in 10.0 mi West 9.2 mph 18.4 mph N/A   Scattered Clouds
6:50 AM 32.0 °F 23.6 °F 28.4 °F 87% 29.85 in 10.0 mi West 10.4 mph 18.4 mph N/A   Clear
7:10 AM 32.0 °F 24.2 °F 28.4 °F 87% 29.86 in 10.0 mi West 9.2 mph 16.1 mph N/A   Clear
7:50 AM 33.8 °F 26.4 °F 28.4 °F 81% 29.88 in 10.0 mi West 9.2 mph 18.4 mph N/A   Clear
8:10 AM 33.8 °F 26.4 °F 28.4 °F 81% 29.89 in 10.0 mi West 9.2 mph - N/A   Clear
8:30 AM 33.8 °F 27.0 °F 28.4 °F 81% 29.89 in 10.0 mi West 8.1 mph 17.3 mph N/A   Clear
8:50 AM 35.6 °F 28.0 °F 28.4 °F 75% 29.90 in 10.0 mi WSW 10.4 mph 18.4 mph N/A   Scattered Clouds
9:10 AM 35.6 °F 28.0 °F 28.4 °F 75% 29.90 in 10.0 mi WSW 10.4 mph 21.9 mph N/A   Mostly Cloudy
9:50 AM 35.6 °F 26.2 °F 28.4 °F 75% 29.90 in 10.0 mi West 15.0 mph 21.9 mph N/A   Overcast
10:10 AM 37.4 °F 29.8 °F 28.4 °F 70% 29.89 in 10.0 mi West 11.5 mph 20.7 mph N/A   Overcast
11:30 AM 41.0 °F 33.1 °F 28.4 °F 61% 29.90 in 10.0 mi WSW 15.0 mph 24.2 mph N/A   Mostly Cloudy
11:50 AM 41.0 °F 33.9 °F 28.4 °F 61% 29.90 in 10.0 mi WSW 12.7 mph 21.9 mph N/A   Mostly Cloudy
12:10 PM 42.8 °F 35.4 °F 30.2 °F 61% 29.90 in 10.0 mi WSW 15.0 mph 21.9 mph N/A   Scattered Clouds
12:30 PM 42.8 °F 36.2 °F 30.2 °F 61% 29.90 in 10.0 mi WSW 12.7 mph 21.9 mph N/A   Clear
12:50 PM 44.6 °F 37.8 °F 30.2 °F 57% 29.90 in 10.0 mi West 15.0 mph 20.7 mph N/A   Clear
1:10 PM 44.6 °F 38.1 °F 30.2 °F 57% 29.90 in 10.0 mi West 13.8 mph 17.3 mph N/A   Scattered Clouds
1:30 PM 46.4 °F 40.1 °F 30.2 °F 53% 29.89 in 10.0 mi WSW 15.0 mph 20.7 mph N/A   Scattered Clouds
1:50 PM 46.4 °F 39.2 °F 30.2 °F 53% 29.89 in 10.0 mi West 18.4 mph 24.2 mph N/A   Clear
2:10 PM 46.4 °F 40.4 °F 30.2 °F 53% 29.89 in 10.0 mi West 13.8 mph 24.2 mph N/A   Clear
2:30 PM 50.0 °F - 28.4 °F 43% 29.89 in 10.0 mi WSW 10.4 mph 23.0 mph N/A   Scattered Clouds
2:50 PM 50.0 °F - 28.4 °F 43% 29.89 in 10.0 mi West 15.0 mph 20.7 mph N/A   Clear
3:10 PM 50.0 °F - 28.4 °F 43% 29.87 in 10.0 mi SW 15.0 mph 23.0 mph N/A   Scattered Clouds
3:30 PM 50.0 °F - 28.4 °F 43% 29.87 in 10.0 mi West 13.8 mph 24.2 mph N/A   Clear
3:50 PM 51.8 °F - 28.4 °F 41% 29.87 in 10.0 mi WSW 17.3 mph 20.7 mph N/A   Clear
4:10 PM 51.8 °F - 28.4 °F 41% 29.87 in 10.0 mi WSW 16.1 mph 27.6 mph N/A   Scattered Clouds
4:30 PM 51.8 °F - 26.6 °F 38% 29.87 in 10.0 mi SW 16.1 mph 23.0 mph N/A   Scattered Clouds
4:50 PM 51.8 °F - 26.6 °F 38% 29.86 in 10.0 mi West 12.7 mph 31.1 mph N/A   Scattered Clouds
5:10 PM 53.6 °F - 23.0 °F 30% 29.87 in 10.0 mi WSW 16.1 mph 28.8 mph N/A   Clear
5:30 PM 51.8 °F - 23.0 °F 33% 29.87 in 10.0 mi WSW 19.6 mph 29.9 mph N/A   Clear
5:50 PM 51.8 °F - 21.2 °F 30% 29.88 in 10.0 mi WSW 19.6 mph 26.5 mph N/A   Clear
6:10 PM 51.8 °F - 21.2 °F 30% 29.89 in 10.0 mi West 12.7 mph 24.2 mph N/A   Clear
6:30 PM 51.8 °F - 21.2 °F 30% 29.89 in 10.0 mi West 12.7 mph 28.8 mph N/A   Clear
6:50 PM 50.0 °F - 21.2 °F 32% 29.90 in 10.0 mi West 15.0 mph 23.0 mph N/A   Clear
7:10 PM 50.0 °F - 21.2 °F 32% 29.90 in 10.0 mi West 12.7 mph 24.2 mph N/A   Clear
7:30 PM 48.2 °F - 21.2 °F 34% 29.91 in 10.0 mi West 13.8 mph 21.9 mph N/A   Clear
7:50 PM 46.4 °F 41.1 °F 21.2 °F 37% 29.91 in 10.0 mi West 11.5 mph 19.6 mph N/A   Clear
8:10 PM 46.4 °F 41.9 °F 23.0 °F 40% 29.92 in 10.0 mi West 9.2 mph 17.3 mph N/A   Clear
8:30 PM 44.6 °F 40.7 °F 23.0 °F 43% 29.92 in 10.0 mi West 6.9 mph - N/A   Clear
8:50 PM 44.6 °F 40.7 °F 24.8 °F 46% 29.93 in 10.0 mi West 6.9 mph - N/A   Clear
9:10 PM 44.6 °F 39.2 °F 24.8 °F 46% 29.94 in 10.0 mi West 10.4 mph 16.1 mph N/A   Clear
9:30 PM 42.8 °F 39.3 °F 26.6 °F 53% 29.95 in 10.0 mi NW 5.8 mph - N/A   Clear
9:50 PM 41.0 °F 36.4 °F 30.2 °F 65% 29.96 in 10.0 mi NNW 6.9 mph - N/A   Clear
10:10 PM 39.2 °F 35.0 °F 30.2 °F 70% 29.97 in 10.0 mi NNW 5.8 mph - N/A   Clear
10:50 PM 37.4 °F - 32.0 °F 81% 29.97 in 10.0 mi Calm Calm - N/A   Clear
11:10 PM 37.4 °F - 30.2 °F 75% 29.97 in 10.0 mi Calm Calm - N/A   Clear
11:30 PM 37.4 °F - 32.0 °F 81% 29.97 in 10.0 mi Calm Calm - N/A   Clear
11:50 PM 37.4 °F 33.8 °F 32.0 °F 81% 29.97 in 10.0 mi West 4.6 mph - N/A   Clear